Theta_e
295 294 294 294 294 294 294 295 296 296 297 296 297 298 298 298 299 299 300 300 300 300
295 294 294 295 295 295 295 295 296 296 295 296 296 297 297 297 297 298 299 300 300 300
294 294 295 295 294 294 295 296 296 296 296 295 295 296 296 296 297 297 298 299 299 300
294 294 294 294 294 295 295 295 295 295 295 294 294 294 295 295 296 296 297 298 299 299
294 294 294 294 294 295 294 296 295 295 294 294 294 294 293 294 295 296 296 297 298 298
293 294 293 294 295 295 295 295 295 296 295 295 295 295 294 294 295 296 296 297 297 297
292 293 294 295 296 296 296 296 296 296 296 297 297 295 294 294 295 296 297 297 297 297
293 294 295 295 295 296 296 296 296 296 296 297 297 297 296 296 296 296 296 297 297 299
296 297 296 296 296 295 295 295 295 295 296 296 297 299 301 299 296 296 296 296 297 298
296 296 295 294 294 296 300 297 295 295 296 296 297 300 301 301 300 297 296 297 298 300
295 294 295 295 296 297 299 299 296 296 296 296 297 300 302 303 301 300 299 300 300 301
294 294 295 295 295 296 296 296 296 297 299 301 300 301 303 302 300 299 300 301 302 302
295 294 293 294 295 296 297 296 297 296 297 299 300 303 302 299 297 295 295 297 299 302
295 294 294 294 293 293 293 292 293 295 296 297 298 298 300 299 294 292 291 291 292 294
Wind_Speed
20 14 14 16 15 13 13 13 15 14 15 16 16 14 13 10 11 12 11 14 11 10
19 19 18 19 17 13 15 13 16 17 16 16 16 15 13 11 13 13 13 13 12 11
20 19 18 18 19 18 16 16 16 16 16 16 16 16 15 12 14 13 12 11 13 12
19 20 19 16 17 16 17 15 16 16 16 15 15 16 15 15 14 14 14 13 12 14
19 18 18 17 17 16 16 15 14 15 12 15 14 14 15 15 14 13 14 13 13 13
18 17 17 16 16 16 16 15 15 14 14 13 14 13 15 15 15 14 14 14 14 13
19 17 16 16 16 15 15 14 14 13 13 13 13 12 13 12 12 13 13 14 14 13
19 17 15 15 15 15 14 13 13 12 12 11 11 10 12 12 14 12 14 13 12 11
17 13 13 13 14 14 14 13 11 11 11 11 8 15 19 14 10 11 11 10 10 12
16 16 16 16 18 18 13 7 8 8 8 9 10 17 17 17 8 10 9 10 9 9
17 16 17 18 19 20 19 14 4 3 7 8 8 16 14 13 7 8 10 10 9 8
18 18 17 19 18 18 17 18 19 18 18 12 6 13 11 6 9 8 3 7 11 9
17 18 18 18 18 17 17 18 16 19 21 31 21 32 30 21 12 17 15 18 19 31
17 17 17 17 17 17 18 18 17 19 20 23 24 27 35 32 16 13 15 15 15 17
Wind_Direction
285 279 276 272 271 267 268 268 266 258 252 259 259 253 248 250 248 246 240 239 234 235
292 283 282 275 271 267 264 263 264 260 256 256 254 252 248 247 248 245 241 240 234 232
294 289 288 284 276 272 266 267 265 259 257 257 253 252 252 247 243 242 240 239 235 231
294 291 286 284 282 279 275 274 269 262 257 257 247 252 251 246 245 238 241 237 238 238
290 287 284 280 278 273 272 264 259 258 252 247 249 246 243 246 240 233 241 239 239 241
294 290 283 279 274 271 266 260 254 248 244 237 235 236 244 238 240 244 243 239 241 245
300 296 292 287 280 275 267 261 255 250 246 239 231 226 227 230 235 235 243 247 247 246
306 300 294 291 290 285 275 264 255 252 250 246 230 222 223 222 224 233 241 245 241 233
317 319 317 308 306 290 265 247 241 243 239 237 244 232 233 218 219 221 227 233 229 236
355 358 359 347 331 333 355 202 214 224 231 233 229 238 237 236 216 201 213 222 228 223
4 4 2 359 7 19 33 46 77 219 229 229 228 234 235 231 218 190 202 217 222 221
9 3 7 12 19 33 41 39 41 39 40 56 190 213 207 115 87 81 108 213 222 231
14 15 18 16 23 29 43 49 49 51 46 49 58 81 85 82 80 76 70 64 75 96
21 21 21 27 30 32 39 39 38 51 55 56 63 69 75 73 68 70 72 69 73 79